| time (UTC) | temp C | wind direction | speed KPH | gust KPH | rain 1hr cm | rain 24hr cm | rain mn cm | humidity % | barometer mb |
| 20260505053503 | 15 | 158 | 4.8 | 14.5 | 0.00 | 0.00 | 0.00 | 62 | 1009.2 |
| 20260505053003 | 15 | 160 | 4.8 | 14.5 | 0.00 | 0.00 | 0.00 | 63 | 1009.2 |
| 20260505052526 | 15 | 168 | 1.6 | 14.5 | 0.00 | 0.00 | 0.00 | 62 | 1009.3 |
| 20260505052005 | 15 | 173 | 1.6 | 9.7 | 0.00 | 0.00 | 0.00 | 61 | 1009.3 |
| 20260505051505 | 15 | 175 | 4.8 | 11.3 | 0.00 | 0.00 | 0.00 | 60 | 1009.3 |
| 20260505051005 | 15 | 171 | 4.8 | 16.1 | 0.00 | 0.00 | 0.00 | 59 | 1009.3 |
| 20260505050505 | 15 | 162 | 1.6 | 16.1 | 0.00 | 0.00 | 0.00 | 59 | 1009.3 |
| 20260505041526 | 15 | 152 | 1.6 | 11.3 | 0.00 | 0.00 | 0.00 | 59 | 1008.9 |
| 20260505041005 | 15 | 162 | 4.8 | 20.9 | 0.00 | 0.00 | 0.00 | 57 | 1008.8 |
| 20260505040505 | 15 | 163 | 4.8 | 20.9 | 0.00 | 0.00 | 0.00 | 57 | 1008.9 |
| 20260505040006 | 15 | 163 | 1.6 | 9.7 | 0.00 | 0.00 | 0.00 | 59 | 1008.9 |
| 20260505035505 | 15 | 156 | 1.6 | 11.3 | 0.00 | 0.00 | 0.00 | 58 | 1008.9 |
| 20260505035005 | 15 | 159 | 1.6 | 11.3 | 0.00 | 0.00 | 0.00 | 59 | 1008.8 |
| 20260505034505 | 15 | 160 | 4.8 | 20.9 | 0.00 | 0.00 | 0.00 | 58 | 1008.8 |
| 20260505034026 | 15 | 170 | 4.8 | 20.9 | 0.00 | 0.00 | 0.00 | 58 | 1008.8 |
| 20260505033505 | 15 | 171 | 4.8 | 22.5 | 0.00 | 0.00 | 0.00 | 58 | 1008.8 |
| 20260505033005 | 16 | 160 | 4.8 | 22.5 | 0.00 | 0.00 | 0.00 | 58 | 1008.9 |
| 20260505032505 | 15 | 161 | 6.4 | 19.3 | 0.00 | 0.00 | 0.00 | 58 | 1008.7 |
| 20260505032005 | 15 | 163 | 4.8 | 19.3 | 0.00 | 0.00 | 0.00 | 58 | 1008.9 |
| 20260505031505 | 15 | 162 | 4.8 | 19.3 | 0.00 | 0.00 | 0.00 | 58 | 1009.0 |
| 20260505031005 | 15 | 166 | 4.8 | 16.1 | 0.00 | 0.00 | 0.00 | 60 | 1009.0 |
| 20260505030526 | 15 | 170 | 4.8 | 9.7 | 0.00 | 0.00 | 0.00 | 58 | 1009.1 |
| 20260505030026 | 15 | 165 | 4.8 | 16.1 | 0.00 | 0.00 | 0.00 | 59 | 1009.1 |
| 20260505025505 | 15 | 165 | 4.8 | 16.1 | 0.00 | 0.00 | 0.00 | 58 | 1009.1 |
| 20260505025005 | 15 | 172 | 1.6 | 9.7 | 0.00 | 0.00 | 0.00 | 58 | 1009.2 |
| 20260505024526 | 16 | 178 | 1.6 | 9.7 | 0.00 | 0.00 | 0.00 | 59 | 1009.2 |
| 20260505024005 | 16 | 174 | 1.6 | 9.7 | 0.00 | 0.00 | 0.00 | 57 | 1009.3 |
| 20260505023506 | 16 | 166 | 4.8 | 20.9 | 0.00 | 0.00 | 0.00 | 57 | 1009.3 |
| 20260505023005 | 16 | 166 | 4.8 | 20.9 | 0.00 | 0.00 | 0.00 | 56 | 1009.2 |
| 20260505022505 | 16 | 165 | 4.8 | 14.5 | 0.00 | 0.00 | 0.00 | 56 | 1009.3 |
| 20260505022005 | 16 | 164 | 4.8 | 14.5 | 0.00 | 0.00 | 0.00 | 56 | 1009.3 |
| 20260505021505 | 16 | 163 | 4.8 | 16.1 | 0.00 | 0.00 | 0.00 | 55 | 1009.3 |
| 20260505021005 | 16 | 164 | 4.8 | 16.1 | 0.00 | 0.00 | 0.00 | 56 | 1009.3 |
| 20260505020505 | 16 | 166 | 4.8 | 14.5 | 0.00 | 0.00 | 0.00 | 55 | 1009.4 |
| 20260505020005 | 16 | 166 | 4.8 | 16.1 | 0.00 | 0.00 | 0.00 | 55 | 1009.2 |
| 20260505015505 | 16 | 165 | 4.8 | 16.1 | 0.00 | 0.00 | 0.00 | 54 | 1009.3 |
| 20260505015004 | 17 | 165 | 4.8 | 14.5 | 0.00 | 0.00 | 0.00 | 54 | 1009.2 |
| 20260505014505 | 17 | 163 | 4.8 | 14.5 | 0.00 | 0.00 | 0.00 | 54 | 1009.2 |
| 20260505014005 | 17 | 161 | 4.8 | 9.7 | 0.00 | 0.00 | 0.00 | 53 | 1009.2 |
| 20260505013504 | 17 | 161 | 1.6 | 9.7 | 0.00 | 0.00 | 0.00 | 53 | 1009.2 |
| 20260505013005 | 17 | 162 | 1.6 | 9.7 | 0.00 | 0.00 | 0.00 | 53 | 1009.2 |
| 20260505012505 | 17 | 165 | 4.8 | 11.3 | 0.00 | 0.00 | 0.00 | 52 | 1009.3 |
| 20260505012005 | 17 | 166 | 4.8 | 11.3 | 0.00 | 0.00 | 0.00 | 53 | 1009.1 |
| 20260505011506 | 17 | 167 | 4.8 | 11.3 | 0.00 | 0.00 | 0.00 | 53 | 1009.1 |
| 20260505011005 | 17 | 167 | 4.8 | 11.3 | 0.00 | 0.00 | 0.00 | 52 | 1009.1 |
| 20260505010505 | 17 | 163 | 4.8 | 14.5 | 0.00 | 0.00 | 0.00 | 52 | 1009.1 |
| 20260505010026 | 17 | 162 | 4.8 | 14.5 | 0.00 | 0.00 | 0.00 | 52 | 1009.1 |
| 20260505005505 | 17 | 166 | 4.8 | 14.5 | 0.00 | 0.00 | 0.00 | 52 | 1009.0 |
| 20260505005005 | 17 | 170 | 4.8 | 16.1 | 0.00 | 0.00 | 0.00 | 51 | 1009.1 |
| 20260505004505 | 17 | 169 | 4.8 | 19.3 | 0.00 | 0.00 | 0.00 | 51 | 1009.0 |
| 20260505004026 | 18 | 165 | 6.4 | 20.9 | 0.00 | 0.00 | 0.00 | 50 | 1008.9 |
| 20260505003505 | 18 | 166 | 6.4 | 20.9 | 0.00 | 0.00 | 0.00 | 49 | 1008.9 |
| 20260505003004 | 18 | 168 | 6.4 | 16.1 | 0.00 | 0.00 | 0.00 | 48 | 1008.8 |
| 20260505002505 | 18 | 164 | 6.4 | 22.5 | 0.00 | 0.00 | 0.00 | 48 | 1008.7 |
| 20260505002005 | 18 | 166 | 6.4 | 22.5 | 0.00 | 0.00 | 0.00 | 49 | 1008.7 |
| 20260505001505 | 18 | 167 | 6.4 | 32.2 | 0.00 | 0.00 | 0.00 | 48 | 1008.6 |
| 20260505001026 | 18 | 165 | 9.7 | 32.2 | 0.00 | 0.00 | 0.00 | 48 | 1008.5 |
| 20260505000505 | 18 | 168 | 6.4 | 25.7 | 0.00 | 0.00 | 0.00 | 48 | 1008.5 |
| 20260505000005 | 18 | 177 | 6.4 | 25.7 | 0.00 | 0.00 | 0.00 | 48 | 1008.6 |
| 20260504235505 | 19 | 177 | 6.4 | 20.9 | 0.00 | 0.00 | 0.00 | 47 | 1008.5 |
| 20260504235005 | 19 | 173 | 9.7 | 32.2 | 0.00 | 0.00 | 0.00 | 46 | 1008.5 |
| 20260504234505 | 19 | 177 | 9.7 | 32.2 | 0.00 | 0.00 | 0.00 | 47 | 1008.4 |
| 20260504234025 | 19 | 183 | 6.4 | 25.7 | 0.00 | 0.00 | 0.00 | 46 | 1008.3 |
| 20260504233505 | 19 | 192 | 4.8 | 11.3 | 0.00 | 0.00 | 0.00 | 47 | 1008.2 |
| 20260504233005 | 20 | 188 | 4.8 | 19.3 | 0.00 | 0.00 | 0.00 | 45 | 1008.1 |
| 20260504232504 | 20 | 189 | 4.8 | 19.3 | 0.00 | 0.00 | 0.00 | 45 | 1008.0 |
| 20260504232025 | 20 | 198 | 6.4 | 14.5 | 0.00 | 0.00 | 0.00 | 44 | 1008.0 |
| 20260504231504 | 20 | 200 | 6.4 | 27.4 | 0.00 | 0.00 | 0.00 | 45 | 1007.9 |
| 20260504231005 | 20 | 204 | 6.4 | 27.4 | 0.00 | 0.00 | 0.00 | 45 | 1007.9 |
| 20260504230505 | 20 | 197 | 6.4 | 16.1 | 0.00 | 0.00 | 0.00 | 45 | 1007.9 |
| 20260504230026 | 20 | 185 | 9.7 | 22.5 | 0.00 | 0.00 | 0.00 | 44 | 1007.8 |
| 20260504225525 | 20 | 180 | 9.7 | 22.5 | 0.00 | 0.00 | 0.00 | 44 | 1007.8 |
| 20260504225026 | 20 | 188 | 6.4 | 19.3 | 0.00 | 0.00 | 0.00 | 43 | 1007.7 |
| 20260504224505 | 20 | 188 | 6.4 | 16.1 | 0.00 | 0.00 | 0.00 | 43 | 1007.6 |
| 20260504224004 | 20 | 183 | 6.4 | 19.3 | 0.00 | 0.00 | 0.00 | 43 | 1007.6 |
| 20260504223505 | 20 | 179 | 9.7 | 27.4 | 0.00 | 0.00 | 0.00 | 43 | 1007.7 |
| 20260504223004 | 21 | 177 | 6.4 | 27.4 | 0.00 | 0.00 | 0.00 | 43 | 1007.6 |
| 20260504222504 | 21 | 198 | 6.4 | 20.9 | 0.00 | 0.00 | 0.00 | 42 | 1007.6 |
| 20260504222004 | 21 | 204 | 6.4 | 20.9 | 0.00 | 0.00 | 0.00 | 43 | 1007.7 |
| 20260504221504 | 21 | 212 | 6.4 | 16.1 | 0.00 | 0.00 | 0.00 | 42 | 1007.7 |
| 20260504221025 | 21 | 226 | 6.4 | 16.1 | 0.00 | 0.00 | 0.00 | 41 | 1007.7 |
| 20260504220505 | 21 | 211 | 6.4 | 19.3 | 0.00 | 0.00 | 0.00 | 41 | 1007.9 |
| 20260504220004 | 21 | 211 | 9.7 | 19.3 | 0.00 | 0.00 | 0.00 | 42 | 1007.8 |
| 20260504215504 | 21 | 217 | 9.7 | 20.9 | 0.00 | 0.00 | 0.00 | 41 | 1007.9 |
| 20260504215004 | 21 | 202 | 6.4 | 22.5 | 0.00 | 0.00 | 0.00 | 41 | 1007.8 |
| 20260504214504 | 21 | 192 | 9.7 | 30.6 | 0.00 | 0.00 | 0.00 | 43 | 1007.8 |
| 20260504214004 | 21 | 191 | 9.7 | 30.6 | 0.00 | 0.00 | 0.00 | 43 | 1007.7 |
| 20260504213504 | 21 | 200 | 6.4 | 19.3 | 0.00 | 0.00 | 0.00 | 41 | 1007.7 |
| 20260504213004 | 21 | 213 | 6.4 | 20.9 | 0.00 | 0.00 | 0.00 | 41 | 1007.9 |
| 20260504212505 | 21 | 211 | 6.4 | 20.9 | 0.00 | 0.00 | 0.00 | 41 | 1007.9 |
| 20260504212004 | 21 | 193 | 6.4 | 22.5 | 0.00 | 0.00 | 0.00 | 41 | 1008.0 |
| 20260504211504 | 21 | 182 | 9.7 | 22.5 | 0.00 | 0.00 | 0.00 | 43 | 1008.0 |
| 20260504211004 | 22 | 188 | 6.4 | 16.1 | 0.00 | 0.00 | 0.00 | 40 | 1008.1 |
| 20260504210504 | 22 | 201 | 6.4 | 19.3 | 0.00 | 0.00 | 0.00 | 42 | 1008.2 |
| 20260504210004 | 22 | 206 | 4.8 | 19.3 | 0.00 | 0.00 | 0.00 | 41 | 1008.4 |
| 20260504205504 | 22 | 193 | 4.8 | 20.9 | 0.00 | 0.00 | 0.00 | 40 | 1008.3 |
| 20260504205025 | 22 | 203 | 6.4 | 20.9 | 0.00 | 0.00 | 0.00 | 40 | 1008.5 |
| 20260504204505 | 22 | 222 | 4.8 | 20.9 | 0.00 | 0.00 | 0.00 | 41 | 1008.6 |
| 20260504204004 | 22 | 201 | 6.4 | 19.3 | 0.00 | 0.00 | 0.00 | 40 | 1008.5 |
| 20260504203504 | 22 | 200 | 9.7 | 19.3 | 0.00 | 0.00 | 0.00 | 40 | 1008.5 |
| 20260504203004 | 22 | 204 | 6.4 | 19.3 | 0.00 | 0.00 | 0.00 | 40 | 1008.6 |
| 20260504202504 | 21 | 176 | 6.4 | 25.7 | 0.00 | 0.00 | 0.00 | 44 | 1008.6 |
| 20260504202004 | 21 | 177 | 9.7 | 25.7 | 0.00 | 0.00 | 0.00 | 41 | 1008.6 |
| 20260504201505 | 21 | 188 | 9.7 | 20.9 | 0.00 | 0.00 | 0.00 | 40 | 1008.8 |
| 20260504201004 | 21 | 195 | 9.7 | 22.5 | 0.00 | 0.00 | 0.00 | 42 | 1008.8 |
| 20260504200505 | 21 | 206 | 6.4 | 22.5 | 0.00 | 0.00 | 0.00 | 41 | 1008.9 |
| 20260504200005 | 21 | 203 | 6.4 | 25.7 | 0.00 | 0.00 | 0.00 | 43 | 1008.8 |
| 20260504195504 | 21 | 194 | 9.7 | 25.7 | 0.00 | 0.00 | 0.00 | 43 | 1008.9 |
| 20260504195005 | 21 | 193 | 6.4 | 19.3 | 0.00 | 0.00 | 0.00 | 44 | 1009.0 |
| 20260504194504 | 20 | 199 | 4.8 | 22.5 | 0.00 | 0.00 | 0.00 | 45 | 1009.1 |
| 20260504194004 | 20 | 183 | 6.4 | 22.5 | 0.00 | 0.00 | 0.00 | 42 | 1009.2 |
| 20260504193504 | 20 | 180 | 6.4 | 16.1 | 0.00 | 0.00 | 0.00 | 46 | 1009.2 |
| 20260504193004 | 20 | 177 | 9.7 | 27.4 | 0.00 | 0.00 | 0.00 | 43 | 1009.2 |
| 20260504192504 | 21 | 191 | 9.7 | 27.4 | 0.00 | 0.00 | 0.00 | 43 | 1009.2 |
| 20260504192025 | 21 | 212 | 6.4 | 20.9 | 0.00 | 0.00 | 0.00 | 45 | 1009.2 |
| 20260504191504 | 21 | 202 | 6.4 | 25.7 | 0.00 | 0.00 | 0.00 | 43 | 1009.3 |
| 20260504191025 | 21 | 203 | 9.7 | 30.6 | 0.00 | 0.00 | 0.00 | 45 | 1009.3 |
| 20260504190526 | 21 | 211 | 6.4 | 30.6 | 0.00 | 0.00 | 0.00 | 43 | 1009.4 |
| 20260504190004 | 22 | 226 | 6.4 | 19.3 | 0.00 | 0.00 | 0.00 | 43 | 1009.4 |
| 20260504185504 | 21 | 225 | 6.4 | 19.3 | 0.00 | 0.00 | 0.00 | 40 | 1009.6 |
| 20260504185004 | 21 | 229 | 6.4 | 19.3 | 0.00 | 0.00 | 0.00 | 43 | 1009.5 |
| 20260504184525 | 21 | 220 | 6.4 | 22.5 | 0.00 | 0.00 | 0.00 | 39 | 1009.6 |
| 20260504184004 | 21 | 205 | 11.3 | 22.5 | 0.00 | 0.00 | 0.00 | 40 | 1009.6 |
| 20260504183504 | 21 | 194 | 11.3 | 30.6 | 0.00 | 0.00 | 0.00 | 41 | 1009.6 |
| 20260504183025 | 21 | 181 | 11.3 | 30.6 | 0.00 | 0.00 | 0.00 | 43 | 1009.5 |
| 20260504182504 | 21 | 184 | 11.3 | 30.6 | 0.00 | 0.00 | 0.00 | 42 | 1009.6 |
| 20260504182004 | 21 | 207 | 9.7 | 30.6 | 0.00 | 0.00 | 0.00 | 42 | 1009.7 |
| 20260504181504 | 21 | 218 | 9.7 | 30.6 | 0.00 | 0.00 | 0.00 | 41 | 1009.6 |
| 20260504181004 | 21 | 196 | 9.7 | 22.5 | 0.00 | 0.00 | 0.00 | 44 | 1009.7 |
| 20260504180505 | 21 | 179 | 9.7 | 22.5 | 0.00 | 0.00 | 0.00 | 45 | 1009.6 |
| 20260504180025 | 21 | 199 | 9.7 | 27.4 | 0.00 | 0.00 | 0.00 | 42 | 1009.8 |
| 20260504175504 | 21 | 230 | 6.4 | 27.4 | 0.00 | 0.00 | 0.00 | 43 | 1009.9 |
| 20260504175004 | 21 | 223 | 6.4 | 19.3 | 0.00 | 0.00 | 0.00 | 41 | 1010.1 |
| 20260504174504 | 21 | 207 | 9.7 | 20.9 | 0.00 | 0.00 | 0.00 | 46 | 1009.9 |
| 20260504174025 | 21 | 197 | 6.4 | 20.9 | 0.00 | 0.00 | 0.00 | 45 | 1010.0 |
| 20260504173504 | 20 | 194 | 6.4 | 19.3 | 0.00 | 0.00 | 0.00 | 47 | 1010.1 |
| 20260504173004 | 20 | 181 | 9.7 | 25.7 | 0.00 | 0.00 | 0.00 | 41 | 1010.0 |
| 20260504172525 | 20 | 186 | 9.7 | 25.7 | 0.00 | 0.00 | 0.00 | 41 | 1010.3 |
| 20260504172004 | 20 | 203 | 6.4 | 22.5 | 0.00 | 0.00 | 0.00 | 45 | 1010.3 |
| 20260504171504 | 20 | 198 | 11.3 | 25.7 | 0.00 | 0.00 | 0.00 | 45 | 1010.4 |
| 20260504171004 | 20 | 194 | 14.5 | 56.3 | 0.00 | 0.00 | 0.00 | 44 | 1010.6 |
| 20260504170504 | 20 | 189 | 11.3 | 56.3 | 0.00 | 0.00 | 0.00 | 44 | 1010.6 |
| 20260504151004 | 17 | 199 | 9.7 | 19.3 | 0.00 | 0.00 | 0.00 | 49 | 1012.0 |
| 20260504150504 | 16 | 194 | 9.7 | 20.9 | 0.00 | 0.00 | 0.00 | 48 | 1012.1 |
| 20260504141004 | 13 | 172 | 9.7 | 20.9 | 0.00 | 0.00 | 0.00 | 50 | 1012.5 |
| 20260504140504 | 13 | 186 | 6.4 | 19.3 | 0.00 | 0.00 | 0.00 | 50 | 1012.5 |
| 20260504130504 | 11 | 181 | 6.4 | 27.4 | 0.00 | 0.00 | 0.00 | 56 | 1012.9 |
| 20260504110503 | 6 | 169 | 4.8 | 11.3 | 0.00 | 0.00 | 0.00 | 68 | 1013.2 |
| 20260504100503 | 6 | 171 | 4.8 | 14.5 | 0.00 | 0.00 | 0.00 | 66 | 1012.9 |
| 20260504082003 | 6 | 182 | 4.8 | 9.7 | 0.00 | 0.00 | 0.00 | 66 | 1013.3 |
| 20260504081503 | 6 | 171 | 1.6 | 9.7 | 0.00 | 0.00 | 0.00 | 65 | 1013.4 |
| 20260504081003 | 6 | 170 | 1.6 | 11.3 | 0.00 | 0.00 | 0.00 | 66 | 1013.3 |
| 20260504080503 | 6 | 172 | 1.6 | 11.3 | 0.00 | 0.00 | 0.00 | 66 | 1013.3 |